Tracking 19245 objects as of 17-Aug-2018
HD Live streaming from Space Station
objects crossing your sky now

FENGYUN 1C DEB

Track FENGYUN 1C DEB now!
10-day predictions


NORAD ID: 38159
Int'l Code: 1999-025ERG
Perigee: 859.2 km
Apogee: 939.9 km
Inclination: 99.4 °
Period: 102.8 minutes
Semi major axis: 7270 km
RCS: 0.003 m2 (small)
Launch date: May 10, 1999
Source: People's Republic of China (PRC)
Launch site: Taiyaun Space Center, China (TSC)

Note: This is SATELLITE DEBRIS
aabbcc
Your satellite tracking list
Your tracking list is empty




NASA's NSSDC Master Catalog

Two Line Element Set (TLE):
1 38159U 99025ERG 18229.16143769  .00000466  00000-0  34131-3 0  9991
2 38159  99.3557   3.0025 0055442  91.5949 269.1566 14.00401895456533
Source of the keplerian elements: AFSPC